Tracking 28790 objects as of 19-Apr-2024
HD Live streaming from Space Station
objects crossing your sky now

SL-8 DEB

Track SL-8 DEB now!
10-day predictions


NORAD ID: 21182
Int'l Code: 1991-009AV
Perigee: 1,469.9 km
Apogee: 1,713.0 km
Inclination: 74.0 °
Period: 117.8 minutes
Semi major axis: 7962 km
RCS: 0.1034 m2 (medium)
Launch date: February 12, 1991
Source: Commonwealth of Independent States (former USSR) (CIS)
Launch site: PLESETSK MISSILE AND SPACE COMPLEX (PKMTR)

Note: This is SATELLITE DEBRIS
Your satellite tracking list
Your tracking list is empty




NASA's NSSDC Master Catalog

Two Line Element Set (TLE):
1 21182U 91009AV  24108.83812844  .00000173  00000-0  17109-2 0  9997
2 21182  74.0022  25.3259 0152626 338.0799  96.2873 12.21893032476371
Source of the keplerian elements: AFSPC